sat.trackr.live / text

‹ back to catalog

STARLINK-33759

NORAD 64007 · 2025-101P

PAYLOAD ACTIVE UNKNOWN

§ Identity

Operator
Country
US
Launch date
2025-05-14
Launch site
AFETR
Launch vehicle
Mass (kg)
RCS (m²)

Purposes: comms

External: N2YO · Heavens-Above · Gunter

§ Orbital elements

Epoch: 2026-05-25T02:22:44.584896Z

Period
94.27 min
Inclination
42.9988°
Eccentricity
0.0001341
Mean motion
15.27600661 rev/d
Perigee alt
482.1 km
Apogee alt
483.9 km
Semi-major
6,861.1 km
B*
7.3333e-4
RAAN
286.2163°
Arg perigee
69.4854°
Mean anomaly
290.6141°
Rev number
5,874

§ Raw data

STARLINK-337591 64007U 25101P   26145.09912714  .00019985  00000+0  73333-3 0  99902 64007  42.9988 286.2163 0001341  69.4854 290.6141 15.27600661 58743

JSON: /api/v1/satellites/64007 · /tle

For live sub-satellite position, see the globe view (requires WebGL).

§ Visibility from observer

Set your observer location to see the next 7 days of passes ≥ 10°. The values pass through the URL so the page stays shareable.

No JS? Fill the form by hand. The geolocation button needs JavaScript.